カタログに戻る

COSMOS 1818 COOLANT

LostLEO
NORAD 36937·DEBRIS·🇷🇺 Russia

打ち上げ Feb 1, 1987 から Baikonur Cosmodrome

Loading…

次のパス (今後24時間)

TLE

古いSource: Space-Track

元期: Sep 30, 2022, 17:47 UTC

1 36937U 87011R   22273.74130704  .00000727  00000-0  29132-3 0  9993
2 36937  65.0146  43.0267 0014947 254.6628 105.2807 14.34723512708462

AllMySatでCOSMOS 1818 COOLANTをリアルタイム追跡

Download on the App Store